LAT661 SCFA-SCSE

Flight info

Callsign LAT661
Flight time N/A
Altitude 35000
Route SACON4 SACON UL300 SEBTO DCT TIMDA TIMDA5
Aircraft A319/M-SDE3FGHIRWY/LB1

Departure

Time 2026-04-20 17:37
Airport Andrés Sabella Gálvez International Airport (SCFA)

Arrival

Time N/A
Airport La Florida Airport (SCSE)
Time Latitude Longitude Altitude Speed Heading
2026-04-20 17:25 -23.44869 -70.44183 462 ft 0 kts 96°
2026-04-20 17:27 -23.44868 -70.44191 462 ft 4 kts 95°
2026-04-20 17:27 -23.44866 -70.44220 460 ft 4 kts 90°
2026-04-20 17:27 -23.44869 -70.44249 458 ft 4 kts 66°
2026-04-20 17:28 -23.44881 -70.44264 461 ft 1 kts
2026-04-20 17:31 -23.44858 -70.44261 461 ft 6 kts
2026-04-20 17:31 -23.44812 -70.44265 462 ft 7 kts 334°
2026-04-20 17:31 -23.44763 -70.44294 462 ft 9 kts 335°
2026-04-20 17:32 -23.44699 -70.44308 462 ft 10 kts 353°
2026-04-20 17:32 -23.44626 -70.44326 462 ft 11 kts 345°
2026-04-20 17:32 -23.44542 -70.44334 462 ft 13 kts
2026-04-20 17:32 -23.44450 -70.44322 462 ft 14 kts
2026-04-20 17:33 -23.44350 -70.44309 462 ft 15 kts
2026-04-20 17:33 -23.44239 -70.44295 462 ft 17 kts
2026-04-20 17:33 -23.44117 -70.44280 459 ft 18 kts
2026-04-20 17:33 -23.43985 -70.44264 462 ft 20 kts
2026-04-20 17:34 -23.43843 -70.44247 459 ft 21 kts
2026-04-20 17:34 -23.43690 -70.44228 460 ft 23 kts
2026-04-20 17:34 -23.43535 -70.44209 462 ft 21 kts
2026-04-20 17:34 -23.43404 -70.44193 462 ft 17 kts
2026-04-20 17:35 -23.43326 -70.44235 462 ft 9 kts 322°
2026-04-20 17:35 -23.43315 -70.44245 460 ft 0 kts 322°
2026-04-20 17:35 -23.43311 -70.44248 462 ft 5 kts 322°
2026-04-20 17:36 -23.43271 -70.44312 462 ft 12 kts 265°
2026-04-20 17:36 -23.43298 -70.44372 462 ft 4 kts 205°
2026-04-20 17:36 -23.43333 -70.44376 459 ft 18 kts 186°
2026-04-20 17:36 -23.43686 -70.44421 463 ft 82 kts 186°
2026-04-20 17:37 -23.44436 -70.44512 461 ft 137 kts 186°
2026-04-20 17:37 -23.45465 -70.44664 847 ft 150 kts 190°
2026-04-20 17:37 -23.46499 -70.44888 1388 ft 155 kts 200°
2026-04-20 17:37 -23.47496 -70.45431 1859 ft 169 kts 208°
2026-04-20 17:38 -23.48627 -70.45993 2229 ft 188 kts 204°
2026-04-20 17:38 -23.49899 -70.46584 2534 ft 210 kts 206°
2026-04-20 17:38 -23.51308 -70.47242 2878 ft 233 kts 205°
2026-04-20 17:38 -23.52887 -70.47979 3270 ft 259 kts 205°
2026-04-20 17:39 -23.54585 -70.48773 4040 ft 270 kts 205°
2026-04-20 17:39 -23.56329 -70.49594 4941 ft 276 kts 205°
2026-04-20 17:39 -23.58110 -70.50436 5802 ft 282 kts 205°
2026-04-20 17:39 -23.59932 -70.51299 6624 ft 288 kts 205°
2026-04-20 17:40 -23.61786 -70.52181 7423 ft 292 kts 205°
2026-04-20 17:40 -23.63659 -70.53075 8244 ft 295 kts 205°
2026-04-20 17:40 -23.65552 -70.53978 9068 ft 298 kts 206°
2026-04-20 17:40 -23.67459 -70.54888 9898 ft 300 kts 206°
2026-04-20 17:41 -23.69412 -70.55823 10327 ft 317 kts 206°
2026-04-20 17:41 -23.71497 -70.56824 10612 ft 335 kts 206°
2026-04-20 17:41 -23.73651 -70.57857 11173 ft 341 kts 206°
2026-04-20 17:41 -23.75836 -70.58903 11827 ft 344 kts 206°
2026-04-20 17:42 -23.78044 -70.59959 12507 ft 347 kts 206°
2026-04-20 17:42 -23.80263 -70.61022 13196 ft 350 kts 206°
2026-04-20 17:42 -23.82499 -70.62093 13874 ft 352 kts 206°